Time,TemperatureF,DewpointF,PressureIn,WindDirection,WindDirectionDegrees,WindSpeedMPH,WindSpeedGustMPH,Humidity,HourlyPrecipIn,Conditions,Clouds,dailyrainin,SoftwareType,DateUTC
2013-08-02 00:00:00,55.8,52.3,29.77,East,90,3.1,3.1,88,0.00,,,0.00,WUHU216HW,2013-08-02 07:00:00,
2013-08-02 00:05:00,55.8,52.3,29.77,East,90,2.9,3.1,88,0.00,,,0.00,WUHU216HW,2013-08-02 07:05:00,
2013-08-02 00:10:00,55.8,52.3,29.77,East,90,2.9,3.1,88,0.00,,,0.00,WUHU216HW,2013-08-02 07:10:00,
2013-08-02 00:30:00,55.3,52.0,29.76,East,90,2.7,2.7,89,0.00,,,0.00,WUHU216HW,2013-08-02 07:30:00,
2013-08-02 00:35:00,55.1,51.8,29.76,ESE,113,2.7,2.7,89,0.00,,,0.00,WUHU216HW,2013-08-02 07:35:00,
2013-08-02 00:40:00,55.1,51.8,29.76,ESE,113,2.7,2.7,89,0.00,,,0.00,WUHU216HW,2013-08-02 07:40:00,
2013-08-02 01:00:00,54.5,51.3,29.76,East,90,1.8,1.8,89,0.00,,,0.00,WUHU216HW,2013-08-02 08:00:00,
2013-08-02 01:05:00,54.5,51.3,29.76,East,90,1.8,1.8,89,0.00,,,0.00,WUHU216HW,2013-08-02 08:05:00,
2013-08-02 01:10:00,54.5,51.3,29.76,East,90,1.8,1.8,89,0.00,,,0.00,WUHU216HW,2013-08-02 08:10:00,
2013-08-02 01:30:00,54.2,51.0,29.75,East,90,2.0,2.0,89,0.00,,,0.00,WUHU216HW,2013-08-02 08:30:00,
2013-08-02 01:35:00,54.2,51.0,29.75,East,90,2.2,2.2,89,0.00,,,0.00,WUHU216HW,2013-08-02 08:35:00,
2013-08-02 01:40:00,54.2,51.0,29.75,East,90,2.2,2.2,89,0.00,,,0.00,WUHU216HW,2013-08-02 08:40:00,
2013-08-02 02:00:00,55.6,52.7,29.75,ESE,113,0.7,0.7,90,0.00,,,0.00,WUHU216HW,2013-08-02 09:00:00,
2013-08-02 02:05:00,55.6,52.4,29.75,ESE,113,1.1,1.1,89,0.00,,,0.00,WUHU216HW,2013-08-02 09:05:00,
2013-08-02 02:10:00,55.6,52.4,29.75,ESE,113,1.1,1.1,89,0.00,,,0.00,WUHU216HW,2013-08-02 09:10:00,
2013-08-02 02:30:00,55.1,51.6,29.75,East,90,0.9,0.9,88,0.00,,,0.00,WUHU216HW,2013-08-02 09:30:00,
2013-08-02 02:35:00,55.1,51.6,29.75,East,90,0.9,0.9,88,0.00,,,0.00,WUHU216HW,2013-08-02 09:35:00,
2013-08-02 02:40:00,55.1,51.6,29.75,East,90,0.9,0.9,88,0.00,,,0.00,WUHU216HW,2013-08-02 09:40:00,
2013-08-02 03:00:00,55.4,51.6,29.75,ESE,113,0.4,0.4,87,0.00,,,0.00,WUHU216HW,2013-08-02 10:00:00,
2013-08-02 03:05:00,55.4,51.6,29.75,ESE,113,0.7,0.7,87,0.00,,,0.00,WUHU216HW,2013-08-02 10:05:00,
2013-08-02 03:10:00,55.4,51.6,29.75,ESE,113,0.7,0.7,87,0.00,,,0.00,WUHU216HW,2013-08-02 10:10:00,
2013-08-02 03:30:00,56.2,52.3,29.75,SE,135,1.8,1.8,87,0.00,,,0.00,WUHU216HW,2013-08-02 10:30:00,
2013-08-02 03:35:00,56.2,52.0,29.75,SE,135,1.8,1.8,86,0.00,,,0.00,WUHU216HW,2013-08-02 10:35:00,
2013-08-02 03:40:00,56.2,52.0,29.75,SE,135,1.8,1.8,86,0.00,,,0.00,WUHU216HW,2013-08-02 10:40:00,
2013-08-02 04:00:00,56.0,52.5,29.75,SSE,158,4.7,4.7,88,0.00,,,0.00,WUHU216HW,2013-08-02 11:00:00,
2013-08-02 04:04:00,56.0,52.5,29.75,SE,135,4.7,4.7,88,0.00,,,0.00,WUHU216HW,2013-08-02 11:04:00,
2013-08-02 04:10:00,56.0,52.5,29.75,SE,135,4.7,4.7,88,0.00,,,0.00,WUHU216HW,2013-08-02 11:10:00,
2013-08-02 04:30:00,56.7,53.2,29.75,SSE,158,0.4,0.4,88,0.00,,,0.00,WUHU216HW,2013-08-02 11:30:00,
2013-08-02 04:35:00,56.7,53.2,29.75,SSE,158,0.2,0.4,88,0.00,,,0.00,WUHU216HW,2013-08-02 11:35:00,
2013-08-02 04:40:00,56.7,53.2,29.75,SSE,158,0.2,0.4,88,0.00,,,0.00,WUHU216HW,2013-08-02 11:40:00,
2013-08-02 05:00:00,57.2,53.1,29.75,SE,135,2.5,2.5,86,0.00,,,0.00,WUHU216HW,2013-08-02 12:00:00,
2013-08-02 05:05:00,57.2,53.1,29.75,SE,135,2.0,2.5,86,0.00,,,0.00,WUHU216HW,2013-08-02 12:05:00,
2013-08-02 05:10:00,57.2,53.1,29.75,SE,135,2.0,2.5,86,0.00,,,0.00,WUHU216HW,2013-08-02 12:10:00,
2013-08-02 05:30:00,58.1,54.0,29.75,SSE,158,0.9,0.9,86,0.00,,,0.00,WUHU216HW,2013-08-02 12:30:00,
2013-08-02 05:35:00,58.1,54.0,29.75,SSE,158,0.9,0.9,86,0.00,,,0.00,WUHU216HW,2013-08-02 12:35:00,
2013-08-02 05:40:00,58.1,54.0,29.75,SSE,158,0.9,0.9,86,0.00,,,0.00,WUHU216HW,2013-08-02 12:40:00,
2013-08-02 06:00:00,59.0,54.5,29.75,WSW,248,3.1,3.1,85,0.00,,,0.00,WUHU216HW,2013-08-02 13:00:00,
2013-08-02 06:05:00,59.0,54.5,29.75,SW,225,1.1,3.1,85,0.00,,,0.00,WUHU216HW,2013-08-02 13:05:00,
2013-08-02 06:10:00,59.0,54.5,29.75,SW,225,1.1,3.1,85,0.00,,,0.00,WUHU216HW,2013-08-02 13:10:00,
2013-08-02 06:30:00,59.9,54.8,29.76,SSE,158,2.9,2.9,83,0.00,,,0.00,WUHU216HW,2013-08-02 13:30:00,
2013-08-02 06:35:00,59.9,54.8,29.76,SSE,158,2.9,2.9,83,0.00,,,0.00,WUHU216HW,2013-08-02 13:35:00,
2013-08-02 06:40:00,59.9,54.8,29.76,SSE,158,2.9,2.9,83,0.00,,,0.00,WUHU216HW,2013-08-02 13:40:00,
2013-08-02 06:59:00,58.5,53.4,29.76,SSE,158,4.9,4.9,83,0.00,,,0.00,WUHU216HW,2013-08-02 13:59:00,
2013-08-02 07:05:00,58.3,53.2,29.76,SSE,158,4.9,4.9,83,0.00,,,0.00,WUHU216HW,2013-08-02 14:05:00,
2013-08-02 07:10:00,58.3,53.2,29.76,SSE,158,4.9,4.9,83,0.00,,,0.00,WUHU216HW,2013-08-02 14:10:00,
2013-08-02 07:30:00,57.2,52.4,29.77,South,180,2.5,2.5,84,0.00,,,0.00,WUHU216HW,2013-08-02 14:30:00,
2013-08-02 07:35:00,57.2,52.7,29.77,South,180,2.9,2.9,85,0.00,,,0.00,WUHU216HW,2013-08-02 14:35:00,
2013-08-02 07:40:00,57.2,52.7,29.77,South,180,2.9,2.9,85,0.00,,,0.00,WUHU216HW,2013-08-02 14:40:00,
2013-08-02 08:00:00,57.8,53.3,29.78,SW,225,1.3,1.3,85,0.00,,,0.00,WUHU216HW,2013-08-02 15:00:00,
2013-08-02 08:04:00,57.8,53.3,29.78,SW,225,1.6,1.6,85,0.00,,,0.00,WUHU216HW,2013-08-02 15:04:00,
2013-08-02 08:09:00,57.8,53.3,29.78,SW,225,1.6,1.6,85,0.00,,,0.00,WUHU216HW,2013-08-02 15:09:00,
2013-08-02 08:30:00,59.8,54.3,29.79,SSE,158,6.0,6.0,82,0.00,,,0.00,WUHU216HW,2013-08-02 15:30:00,
2013-08-02 08:35:00,59.8,54.3,29.78,SSE,158,4.0,6.0,82,0.00,,,0.00,WUHU216HW,2013-08-02 15:35:00,
2013-08-02 08:40:00,59.8,54.3,29.78,SSE,158,4.0,6.0,82,0.00,,,0.00,WUHU216HW,2013-08-02 15:40:00,
2013-08-02 09:00:00,58.0,53.5,29.79,SSE,158,2.9,2.9,85,0.00,,,0.00,WUHU216HW,2013-08-02 16:00:00,
2013-08-02 09:05:00,58.0,53.5,29.79,SSE,158,3.6,3.6,85,0.00,,,0.00,WUHU216HW,2013-08-02 16:05:00,
2013-08-02 09:09:00,58.0,53.5,29.79,SSE,158,3.6,3.6,85,0.00,,,0.00,WUHU216HW,2013-08-02 16:09:00,
2013-08-02 09:30:00,58.1,53.6,29.79,SSE,158,2.5,2.5,85,0.00,,,0.00,WUHU216HW,2013-08-02 16:30:00,
2013-08-02 09:35:00,58.1,54.0,29.79,SSE,158,2.5,2.5,86,0.00,,,0.00,WUHU216HW,2013-08-02 16:35:00,
2013-08-02 09:40:00,58.1,54.0,29.79,SSE,158,2.5,2.5,86,0.00,,,0.00,WUHU216HW,2013-08-02 16:40:00,
2013-08-02 09:59:00,59.0,53.9,29.79,SSE,158,2.2,2.2,83,0.00,,,0.00,WUHU216HW,2013-08-02 16:59:00,
2013-08-02 10:05:00,59.2,54.4,29.79,SSE,158,0.7,2.2,84,0.00,,,0.00,WUHU216HW,2013-08-02 17:05:00,
2013-08-02 10:10:00,59.2,54.4,29.79,SSE,158,0.7,0.7,84,0.00,,,0.00,WUHU216HW,2013-08-02 17:10:00,
2013-08-02 10:30:00,62.3,55.6,29.79,SSW,203,2.7,2.7,79,0.00,,,0.00,WUHU216HW,2013-08-02 17:30:00,
2013-08-02 10:35:00,62.1,55.5,29.79,West,270,3.8,3.8,79,0.00,,,0.00,WUHU216HW,2013-08-02 17:35:00,
2013-08-02 10:40:00,62.1,55.5,29.79,West,270,3.8,3.8,79,0.00,,,0.00,WUHU216HW,2013-08-02 17:40:00,
2013-08-02 11:00:00,64.8,57.1,29.79,SSW,203,1.3,1.3,76,0.00,,,0.00,WUHU216HW,2013-08-02 18:00:00,
2013-08-02 11:04:00,64.8,57.1,29.79,South,180,1.1,2.5,76,0.00,,,0.00,WUHU216HW,2013-08-02 18:04:00,
2013-08-02 11:09:00,64.8,57.1,29.79,South,180,1.1,2.5,76,0.00,,,0.00,WUHU216HW,2013-08-02 18:09:00,
2013-08-02 11:30:00,70.4,58.9,29.79,SSW,203,4.5,4.5,67,0.00,,,0.00,WUHU216HW,2013-08-02 18:30:00,
2013-08-02 11:35:00,70.4,58.9,29.78,South,180,6.3,6.3,67,0.00,,,0.00,WUHU216HW,2013-08-02 18:35:00,
2013-08-02 11:40:00,70.4,58.9,29.78,South,180,6.3,6.3,67,0.00,,,0.00,WUHU216HW,2013-08-02 18:40:00,
2013-08-02 12:00:00,72.7,59.0,29.78,SSW,203,1.6,1.6,62,0.00,,,0.00,WUHU216HW,2013-08-02 19:00:00,
2013-08-02 12:05:00,72.7,59.0,29.78,SSW,203,0.4,1.6,62,0.00,,,0.00,WUHU216HW,2013-08-02 19:05:00,
2013-08-02 12:10:00,72.7,59.0,29.78,SSW,203,0.4,1.6,62,0.00,,,0.00,WUHU216HW,2013-08-02 19:10:00,
2013-08-02 12:30:00,72.0,57.4,29.77,WNW,293,2.9,2.9,60,0.00,,,0.00,WUHU216HW,2013-08-02 19:30:00,
2013-08-02 12:35:00,72.0,57.4,29.77,WNW,293,2.9,2.9,60,0.00,,,0.00,WUHU216HW,2013-08-02 19:35:00,
2013-08-02 12:40:00,72.0,57.4,29.77,WNW,293,2.9,2.9,60,0.00,,,0.00,WUHU216HW,2013-08-02 19:40:00,
2013-08-02 13:00:00,72.4,57.7,29.77,WSW,248,6.3,6.3,60,0.00,,,0.00,WUHU216HW,2013-08-02 20:00:00,
2013-08-02 13:05:00,72.4,57.7,29.77,West,270,5.1,6.3,60,0.00,,,0.00,WUHU216HW,2013-08-02 20:05:00,
2013-08-02 13:09:00,72.4,57.7,29.77,West,270,5.1,5.1,60,0.00,,,0.00,WUHU216HW,2013-08-02 20:09:00,
2013-08-02 13:30:00,72.4,57.3,29.77,WSW,248,2.7,2.7,59,0.00,,,0.00,WUHU216HW,2013-08-02 20:30:00,
2013-08-02 13:35:00,72.4,57.3,29.77,WSW,248,9.2,9.2,59,0.00,,,0.00,WUHU216HW,2013-08-02 20:35:00,
2013-08-02 13:40:00,72.4,57.3,29.77,WSW,248,9.2,9.2,59,0.00,,,0.00,WUHU216HW,2013-08-02 20:40:00,
2013-08-02 13:59:00,71.8,56.7,29.76,WNW,293,4.0,4.0,59,0.00,,,0.00,WUHU216HW,2013-08-02 20:59:00,
2013-08-02 14:04:00,71.8,56.7,29.76,West,270,9.4,9.4,59,0.00,,,0.00,WUHU216HW,2013-08-02 21:04:00,
2013-08-02 14:10:00,71.8,56.7,29.76,West,270,9.4,9.4,59,0.00,,,0.00,WUHU216HW,2013-08-02 21:10:00,
2013-08-02 14:30:00,70.6,56.1,29.76,NW,315,8.9,8.9,60,0.00,,,0.00,WUHU216HW,2013-08-02 21:30:00,
2013-08-02 14:35:00,70.6,56.1,29.76,NW,315,10.5,10.5,60,0.00,,,0.00,WUHU216HW,2013-08-02 21:35:00,
2013-08-02 14:40:00,70.6,56.1,29.76,NW,315,10.5,10.5,60,0.00,,,0.00,WUHU216HW,2013-08-02 21:40:00,
2013-08-02 15:00:00,69.8,55.9,29.76,WNW,293,7.6,7.6,61,0.00,,,0.00,WUHU216HW,2013-08-02 22:00:00,
2013-08-02 15:05:00,69.8,55.9,29.76,WNW,293,7.6,7.6,61,0.00,,,0.00,WUHU216HW,2013-08-02 22:05:00,
2013-08-02 15:10:00,69.8,55.9,29.76,WNW,293,7.6,7.6,61,0.00,,,0.00,WUHU216HW,2013-08-02 22:10:00,
2013-08-02 15:30:00,68.8,55.2,29.76,WNW,293,8.5,8.5,62,0.00,,,0.00,WUHU216HW,2013-08-02 22:30:00,
2013-08-02 15:35:00,68.8,55.2,29.76,WNW,293,7.6,8.5,62,0.00,,,0.00,WUHU216HW,2013-08-02 22:35:00,
2013-08-02 15:40:00,68.8,55.2,29.76,WNW,293,7.6,7.6,62,0.00,,,0.00,WUHU216HW,2013-08-02 22:40:00,
2013-08-02 16:00:00,68.0,55.8,29.76,West,270,9.4,9.4,65,0.00,,,0.00,WUHU216HW,2013-08-02 23:00:00,
2013-08-02 16:05:00,67.9,55.6,29.76,SW,225,5.4,9.4,65,0.00,,,0.00,WUHU216HW,2013-08-02 23:05:00,
2013-08-02 16:09:00,67.9,55.6,29.76,SW,225,5.4,5.4,65,0.00,,,0.00,WUHU216HW,2013-08-02 23:09:00,
2013-08-02 16:30:00,67.0,54.8,29.76,West,270,9.4,9.4,65,0.00,,,0.00,WUHU216HW,2013-08-02 23:30:00,
2013-08-02 16:35:00,66.8,55.0,29.76,WNW,293,10.5,10.5,66,0.00,,,0.00,WUHU216HW,2013-08-02 23:35:00,
2013-08-02 16:40:00,66.8,55.0,29.76,WNW,293,10.5,10.5,66,0.00,,,0.00,WUHU216HW,2013-08-02 23:40:00,
2013-08-02 17:00:00,65.0,54.6,29.76,SW,225,6.0,6.0,69,0.00,,,0.00,WUHU216HW,2013-08-03 00:00:00,
2013-08-02 17:05:00,65.0,54.6,29.76,SSW,203,1.8,6.0,69,0.00,,,0.00,WUHU216HW,2013-08-03 00:05:00,
2013-08-02 17:10:00,65.0,54.6,29.76,SSW,203,1.8,6.0,69,0.00,,,0.00,WUHU216HW,2013-08-03 00:10:00,
2013-08-02 17:30:00,64.1,54.5,29.76,West,270,5.1,5.1,71,0.00,,,0.00,WUHU216HW,2013-08-03 00:30:00,
2013-08-02 17:35:00,64.1,54.2,29.76,West,270,5.1,5.1,70,0.00,,,0.00,WUHU216HW,2013-08-03 00:35:00,
2013-08-02 17:40:00,64.1,54.2,29.76,West,270,5.1,5.1,70,0.00,,,0.00,WUHU216HW,2013-08-03 00:40:00,
2013-08-02 18:00:00,62.8,54.0,29.76,WNW,293,2.5,2.5,73,0.00,,,0.00,WUHU216HW,2013-08-03 01:00:00,
2013-08-02 18:05:00,62.8,54.0,29.76,WNW,293,2.5,2.5,73,0.00,,,0.00,WUHU216HW,2013-08-03 01:05:00,
2013-08-02 18:10:00,62.8,54.0,29.76,WNW,293,2.5,2.5,73,0.00,,,0.00,WUHU216HW,2013-08-03 01:10:00,
2013-08-02 18:30:00,63.5,54.4,29.75,WNW,293,6.7,6.7,72,0.00,,,0.00,WUHU216HW,2013-08-03 01:30:00,
2013-08-02 18:35:00,63.5,54.7,29.76,WNW,293,4.7,6.7,73,0.00,,,0.00,WUHU216HW,2013-08-03 01:35:00,
2013-08-02 18:40:00,63.5,54.7,29.76,WNW,293,4.7,4.7,73,0.00,,,0.00,WUHU216HW,2013-08-03 01:40:00,
2013-08-02 19:00:00,62.1,53.7,29.75,SSE,158,5.1,5.1,74,0.00,,,0.00,WUHU216HW,2013-08-03 02:00:00,
2013-08-02 19:05:00,62.3,53.8,29.75,WSW,248,6.0,6.0,74,0.00,,,0.00,WUHU216HW,2013-08-03 02:05:00,
2013-08-02 19:09:00,62.3,53.8,29.75,WSW,248,6.0,6.0,74,0.00,,,0.00,WUHU216HW,2013-08-03 02:09:00,
2013-08-02 19:30:00,61.7,53.4,29.75,South,180,4.7,4.7,74,0.00,,,0.00,WUHU216HW,2013-08-03 02:30:00,
2013-08-02 19:35:00,61.7,53.4,29.75,SSW,203,6.3,6.3,74,0.00,,,0.00,WUHU216HW,2013-08-03 02:35:00,
2013-08-02 19:40:00,61.7,53.4,29.75,SSW,203,6.3,6.3,74,0.00,,,0.00,WUHU216HW,2013-08-03 02:40:00,
2013-08-02 20:00:00,61.9,53.6,29.75,SW,225,8.3,8.3,74,0.00,,,0.00,WUHU216HW,2013-08-03 03:00:00,
2013-08-02 20:05:00,61.9,53.6,29.75,SSW,203,4.7,8.3,74,0.00,,,0.00,WUHU216HW,2013-08-03 03:05:00,
2013-08-02 20:10:00,61.9,53.6,29.75,SSW,203,4.7,8.3,74,0.00,,,0.00,WUHU216HW,2013-08-03 03:10:00,
2013-08-02 20:30:00,61.2,52.9,29.76,SSW,203,4.0,4.0,74,0.00,,,0.00,WUHU216HW,2013-08-03 03:30:00,
2013-08-02 20:35:00,61.4,53.0,29.75,SSW,203,4.0,4.0,74,0.00,,,0.00,WUHU216HW,2013-08-03 03:35:00,
2013-08-02 20:40:00,61.4,53.0,29.75,SSW,203,4.0,4.0,74,0.00,,,0.00,WUHU216HW,2013-08-03 03:40:00,
2013-08-02 21:00:00,60.3,52.4,29.76,SSE,158,1.3,1.3,75,0.00,,,0.00,WUHU216HW,2013-08-03 04:00:00,
2013-08-02 21:01:00,60.3,52.7,29.76,SSE,158,1.3,1.3,76,0.00,,,0.00,WUHU216HW,2013-08-03 04:01:00,
2013-08-02 21:02:00,60.3,52.7,29.76,SSE,158,1.3,1.3,76,0.00,,,0.00,WUHU216HW,2013-08-03 04:02:00,
2013-08-02 21:07:00,60.3,52.7,29.76,SSE,158,1.3,1.3,76,0.00,,,0.00,WUHU216HW,2013-08-03 04:07:00,
2013-08-02 21:30:00,60.1,52.9,29.76,SSW,203,4.0,4.0,77,0.00,,,0.00,WUHU216HW,2013-08-03 04:30:00,
2013-08-02 21:35:00,60.1,52.9,29.77,SSW,203,5.4,5.4,77,0.00,,,0.00,WUHU216HW,2013-08-03 04:35:00,
2013-08-02 21:40:00,60.1,52.9,29.77,SSW,203,5.4,5.4,77,0.00,,,0.00,WUHU216HW,2013-08-03 04:40:00,
2013-08-02 22:00:00,59.0,52.6,29.77,South,180,0.4,0.4,79,0.00,,,0.00,WUHU216HW,2013-08-03 05:00:00,
2013-08-02 22:05:00,59.0,52.6,29.77,SSE,158,3.1,3.1,79,0.00,,,0.00,WUHU216HW,2013-08-03 05:05:00,
2013-08-02 22:09:00,59.0,52.6,29.77,SSE,158,3.1,3.1,79,0.00,,,0.00,WUHU216HW,2013-08-03 05:09:00,
2013-08-02 22:30:00,59.0,52.9,29.77,South,180,2.2,2.2,80,0.00,,,0.00,WUHU216HW,2013-08-03 05:30:00,
2013-08-02 22:35:00,59.0,52.9,29.77,SSE,158,1.1,2.2,80,0.00,,,0.00,WUHU216HW,2013-08-03 05:35:00,
2013-08-02 22:40:00,59.0,52.9,29.77,SSE,158,1.1,2.2,80,0.00,,,0.00,WUHU216HW,2013-08-03 05:40:00,
2013-08-02 23:00:00,58.5,52.8,29.77,SE,135,2.2,2.2,81,0.00,,,0.00,WUHU216HW,2013-08-03 06:00:00,
2013-08-02 23:04:00,58.5,52.8,29.77,SSE,158,2.5,2.5,81,0.00,,,0.00,WUHU216HW,2013-08-03 06:04:00,
2013-08-02 23:10:00,58.5,52.8,29.77,SSE,158,2.5,2.5,81,0.00,,,0.00,WUHU216HW,2013-08-03 06:10:00,
2013-08-02 23:30:00,59.0,52.9,29.76,SSE,158,2.5,2.5,80,0.00,,,0.00,WUHU216HW,2013-08-03 06:30:00,
2013-08-02 23:35:00,59.0,52.9,29.76,SSE,158,2.5,2.5,80,0.00,,,0.00,WUHU216HW,2013-08-03 06:35:00,
2013-08-02 23:40:00,59.0,52.9,29.76,SSE,158,2.5,2.5,80,0.00,,,0.00,WUHU216HW,2013-08-03 06:40:00,